This demonstration page uses our WeatherBlox Daily Observations layout. Learn more.

Left ArrowRight Arrow

39.01783, -85.05884

Hourly Observations for September 29, 2021

Temp ( °F °C ) Dew Point ( °F °C ) Humidity (%) Winds ( mph kmh ) Pressure ( in mb ) Visibility ( mi km ) Precip ( " mm )
12:52 am 00:52 Clear 68 20 60 15.6 76 76 E 5 7 29.96 1015 10 16 N/A
1:52 am 01:52 Clear 68 20 60 15.6 76 76 N N/A 29.97 1015 9 14 N/A
2:52 am 02:52 Clear 66 18.9 60 15.6 81 81 NNE 6 9 29.97 1015 9 14 N/A
3:52 am 03:52 Clear 66 18.9 60 15.6 81 81 ENE 3 6 29.97 1015 8 13 N/A
4:52 am 04:52 Clear 65 18.3 60 15.6 84 84 NE 6 9 29.99 1016 8 13 N/A
5:52 am 05:52 Clear 64 17.8 59 15 84 84 NE 7 11 30.00 1016 7 11 N/A
6:52 am 06:52 Clear 63 17.2 58 14.4 84 84 ENE 8 13 30.02 1017 8 13 N/A
7:52 am 07:52 Sunny 63 17.2 57 13.9 81 81 ENE 7 11 30.04 1017 7 11 N/A
8:42 am 08:42 Hazy 63 17.2 58 14.4 84 84 ESE 3 6 30.06 1018 6 10 N/A
8:52 am 08:52 Sunny 64 17.8 58 14.4 81 81 E 3 6 30.05 1018 7 11 N/A
9:52 am 09:52 Sunny 67 19.4 59 15 76 76 E 7 11 30.06 1018 10 16 N/A
10:52 am 10:52 Sunny 71 21.7 59 15 66 66 ENE 9 15 30.06 1018 10 16 N/A
11:52 am 11:52 Sunny 74 23.3 61 16.1 64 64 VRB 5 7 30.06 1018 10 16 N/A
12:52 pm 12:52 Sunny 76 24.4 61 16.1 60 60 VRB 5 7 30.06 1018 10 16 N/A
1:52 pm 13:52 Mostly Sunny 79 26.1 62 16.7 56 56 NNE 6 9 30.05 1018 10 16 N/A
2:52 pm 14:52 Mostly Sunny 81 27.2 61 16.1 51 51 N 5 7 30.03 1017 9 14 N/A
3:52 pm 15:52 Mostly Sunny 82 27.8 60 15.6 47 47 VRB 3 6 30.02 1017 9 14 N/A
4:52 pm 16:52 Mostly Sunny 82 27.8 58 14.4 44 44 NNW 5 7 30.01 1016 10 16 N/A
5:52 pm 17:52 Mostly Sunny 81 27.2 57 13.9 44 44 NE 5 7 30.00 1016 10 16 N/A
6:52 pm 18:52 Mostly Sunny 80 26.7 55 12.8 42 42 NNE 6 9 30.01 1016 10 16 N/A
7:52 pm 19:52 Partly Cloudy 76 24.4 55 12.8 48 48 NNE 3 6 30.02 1017 10 16 N/A
8:52 pm 20:52 Partly Cloudy 73 22.8 55 12.8 53 53 N N/A 30.04 1017 10 16 N/A
9:52 pm 21:52 Mostly Cloudy 69 20.6 54 12.2 59 59 E 3 6 30.05 1018 10 16 N/A
10:52 pm 22:52 Mostly Cloudy 68 20 51 10.6 55 55 E 7 11 30.07 1018 10 16 N/A
11:52 pm 23:52 Mostly Cloudy 67 19.4 49 9.4 53 53 E 5 7 30.08 1019 10 16 N/A

Powered by AerisWeather